• Em Portugal
  • Lista de países
  • Para 7 dias
  • Temperatura da água
  • Mapas de satélite
  • Mapa do tempo
  • Widgets de tempo
  • user-avatar
    Iniciar Sessão

    Previsão horária em Wegry

    Hoje, 16 Agosto, Quinta-feira

    Tempo Temperatura Precipitação Vento Pressão Humidade
    00:00 +16°C° 0 mm 2 m/s 760 mmHg 89%
    01:00 +16°C° 0 mm 2 m/s 760 mmHg 91%
    02:00 +16°C° 0 mm 1 m/s 760 mmHg 91%
    03:00 +15°C° 0 mm 1 m/s 760 mmHg 92%
    04:00 +15°C° 0 mm 1 m/s 760 mmHg 92%
    05:00 +16°C° 0 mm 1 m/s 761 mmHg 88%
    06:00 +19°C° 0 mm 1 m/s 761 mmHg 83%
    07:00 +20°C° 0 mm 1 m/s 761 mmHg 78%
    08:00 +21°C° 0 mm 1 m/s 761 mmHg 71%
    09:00 +23°C° 0 mm 1 m/s 761 mmHg 64%
    10:00 +25°C° 0 mm 1 m/s 761 mmHg 57%
    11:00 +26°C° 0 mm 1 m/s 761 mmHg 53%
    12:00 +26°C° 0 mm 1 m/s 761 mmHg 50%
    13:00 +27°C° 0 mm 1 m/s 761 mmHg 47%
    14:00 +27°C° 0 mm 1 m/s 761 mmHg 47%
    15:00 +27°C° 0 mm 1 m/s 760 mmHg 47%
    16:00 +27°C° 0 mm 1 m/s 760 mmHg 48%
    17:00 +26°C° 0 mm 1 m/s 760 mmHg 53%
    18:00 +24°C° 0 mm 2 m/s 760 mmHg 58%
    19:00 +23°C° 0 mm 2 m/s 760 mmHg 63%
    20:00 +21°C° 0 mm 2 m/s 760 mmHg 65%
    21:00 +21°C° 0 mm 2 m/s 760 mmHg 67%
    22:00 +20°C° 0 mm 3 m/s 760 mmHg 70%
    23:00 +20°C° 0 mm 3 m/s 760 mmHg 71%

    Amanhã, 17 Agosto, Sexta-feira

    Tempo Temperatura Precipitação Vento Pressão Humidade
    00:00 +19°C° 0 mm 2 m/s 760 mmHg 72%
    01:00 +19°C° 0 mm 2 m/s 760 mmHg 73%
    02:00 +18°C° 0 mm 2 m/s 760 mmHg 75%
    03:00 +18°C° 0 mm 2 m/s 760 mmHg 76%
    04:00 +18°C° 0 mm 2 m/s 760 mmHg 78%
    05:00 +19°C° 0 mm 2 m/s 760 mmHg 75%
    06:00 +20°C° 0 mm 3 m/s 760 mmHg 73%
    07:00 +21°C° 0 mm 3 m/s 760 mmHg 71%
    08:00 +24°C° 0 mm 3 m/s 760 mmHg 65%
    09:00 +25°C° 0 mm 3 m/s 760 mmHg 59%
    10:00 +27°C° 0 mm 3 m/s 760 mmHg 52%
    11:00 +27°C° 0 mm 2 m/s 760 mmHg 51%
    12:00 +28°C° 0 mm 2 m/s 759 mmHg 49%
    13:00 +28°C° 0 mm 2 m/s 759 mmHg 47%
    14:00 +28°C° 0 mm 2 m/s 759 mmHg 49%
    15:00 +28°C° 0 mm 2 m/s 758 mmHg 51%
    16:00 +27°C° 0 mm 2 m/s 758 mmHg 53%
    17:00 +26°C° 0 mm 2 m/s 758 mmHg 56%
    18:00 +26°C° 0 mm 2 m/s 758 mmHg 58%
    19:00 +25°C° 0 mm 2 m/s 758 mmHg 61%
    20:00 +24°C° 0 mm 2 m/s 758 mmHg 61%
    21:00 +24°C° 0 mm 2 m/s 758 mmHg 61%
    22:00 +24°C° 0 mm 2 m/s 758 mmHg 61%
    23:00 +23°C° 0 mm 2 m/s 758 mmHg 63%

    Depois de amanhã, 18 Agosto, Sábado

    Tempo Temperatura Precipitação Vento Pressão Humidade
    00:00 +23°C° 0 mm 2 m/s 758 mmHg 65%
    01:00 +23°C° 0 mm 2 m/s 758 mmHg 67%
    02:00 +21°C° 0 mm 2 m/s 758 mmHg 68%
    03:00 +21°C° 0 mm 2 m/s 758 mmHg 68%
    04:00 +21°C° 0 mm 2 m/s 758 mmHg 69%
    05:00 +21°C° 0 mm 2 m/s 758 mmHg 69%
    06:00 +23°C° 0 mm 2 m/s 759 mmHg 68%
    07:00 +23°C° 0 mm 2 m/s 759 mmHg 68%
    08:00 +25°C° 0,2 mm 2 m/s 759 mmHg 64%
    09:00 +26°C° 0,2 mm 2 m/s 759 mmHg 60%
    10:00 +27°C° 0,2 mm 2 m/s 759 mmHg 56%
    11:00 +28°C° 0,3 mm 2 m/s 759 mmHg 56%
    12:00 +28°C° 0,3 mm 2 m/s 759 mmHg 56%
    13:00 +28°C° 0,3 mm 3 m/s 759 mmHg 56%
    14:00 +28°C° 0,3 mm 2 m/s 759 mmHg 57%
    15:00 +27°C° 0,3 mm 2 m/s 759 mmHg 58%
    16:00 +27°C° 0,3 mm 2 m/s 759 mmHg 59%
    17:00 +26°C° 0,6 mm 2 m/s 759 mmHg 67%
    18:00 +24°C° 0,6 mm 3 m/s 759 mmHg 74%
    19:00 +21°C° 0,6 mm 3 m/s 760 mmHg 82%
    20:00 +20°C° 0 mm 3 m/s 760 mmHg 84%
    21:00 +19°C° 0 mm 3 m/s 760 mmHg 86%
    22:00 +18°C° 0 mm 3 m/s 761 mmHg 88%
    23:00 +18°C° 0 mm 3 m/s 761 mmHg 87%

    19 Agosto, Domingo

    Tempo Temperatura Precipitação Vento Pressão Humidade
    00:00 +17°C° 0 mm 3 m/s 761 mmHg 86%
    01:00 +16°C° 0 mm 2 m/s 761 mmHg 85%
    02:00 +16°C° 0 mm 2 m/s 761 mmHg 85%
    03:00 +15°C° 0 mm 2 m/s 761 mmHg 84%
    04:00 +15°C° 0 mm 2 m/s 761 mmHg 84%
    05:00 +16°C° 0 mm 3 m/s 761 mmHg 80%
    06:00 +17°C° 0 mm 3 m/s 761 mmHg 75%
    07:00 +18°C° 0 mm 3 m/s 762 mmHg 71%
    08:00 +20°C° 0 mm 3 m/s 762 mmHg 66%
    09:00 +22°C° 0 mm 3 m/s 762 mmHg 61%
    10:00 +23°C° 0 mm 4 m/s 762 mmHg 55%
    11:00 +25°C° 0 mm 4 m/s 762 mmHg 54%
    12:00 +26°C° 0 mm 4 m/s 762 mmHg 53%
    13:00 +26°C° 0 mm 4 m/s 761 mmHg 52%
    14:00 +26°C° 0,1 mm 4 m/s 761 mmHg 55%
    15:00 +26°C° 0,1 mm 4 m/s 761 mmHg 58%
    16:00 +25°C° 0,1 mm 4 m/s 761 mmHg 60%
    17:00 +24°C° 0,1 mm 3 m/s 761 mmHg 67%
    18:00 +23°C° 0,1 mm 2 m/s 761 mmHg 73%
    19:00 +20°C° 0,1 mm 2 m/s 761 mmHg 80%
    20:00 +19°C° 0 mm 2 m/s 761 mmHg 83%
    21:00 +20°C° 0 mm 1 m/s 761 mmHg 86%
    22:00 +19°C° 0 mm 1 m/s 761 mmHg 89%
    23:00 +19°C° 0 mm 1 m/s 761 mmHg 89%

    20 Agosto, Segunda-feira

    Tempo Temperatura Precipitação Vento Pressão Humidade
    00:00 +18°C° 0 mm 2 m/s 761 mmHg 90%
    01:00 +17°C° 0 mm 2 m/s 761 mmHg 91%
    02:00 +17°C° 0 mm 2 m/s 761 mmHg 91%
    03:00 +17°C° 0 mm 2 m/s 761 mmHg 91%
    04:00 +17°C° 0 mm 2 m/s 760 mmHg 91%
    05:00 +18°C° 0 mm 2 m/s 760 mmHg 86%
    06:00 +19°C° 0 mm 3 m/s 760 mmHg 81%
    07:00 +21°C° 0 mm 3 m/s 760 mmHg 77%
    08:00 +22°C° 0 mm 4 m/s 760 mmHg 69%
    09:00 +25°C° 0 mm 4 m/s 760 mmHg 62%
    10:00 +27°C° 0 mm 4 m/s 760 mmHg 54%
    11:00 +28°C° 0 mm 4 m/s 759 mmHg 51%
    12:00 +29°C° 0 mm 5 m/s 759 mmHg 49%
    13:00 +29°C° 0 mm 5 m/s 758 mmHg 46%
    14:00 +29°C° 0,1 mm 4 m/s 758 mmHg 48%
    15:00 +29°C° 0,1 mm 4 m/s 758 mmHg 51%
    16:00 +28°C° 0,1 mm 3 m/s 758 mmHg 53%
    17:00 +27°C° 0,1 mm 3 m/s 758 mmHg 57%
    18:00 +26°C° 0,1 mm 2 m/s 757 mmHg 61%
    19:00 +25°C° 0,1 mm 2 m/s 757 mmHg 65%
    20:00 +24°C° 0 mm 2 m/s 758 mmHg 69%
    21:00 +23°C° 0 mm 2 m/s 758 mmHg 74%
    22:00 +21°C° 0 mm 2 m/s 758 mmHg 78%
    23:00 +21°C° 0 mm 2 m/s 758 mmHg 81%

    21 Agosto, Terça-feira

    Tempo Temperatura Precipitação Vento Pressão Humidade
    00:00 +20°C° 0 mm 3 m/s 758 mmHg 84%
    01:00 +19°C° 0 mm 3 m/s 758 mmHg 87%
    02:00 +19°C° 0 mm 3 m/s 758 mmHg 88%
    03:00 +19°C° 0 mm 3 m/s 758 mmHg 90%
    04:00 +18°C° 0 mm 3 m/s 757 mmHg 91%
    05:00 +19°C° 0 mm 3 m/s 758 mmHg 86%
    06:00 +20°C° 0 mm 4 m/s 758 mmHg 82%
    07:00 +22°C° 0 mm 4 m/s 758 mmHg 78%
    08:00 +23°C° 0 mm 5 m/s 758 mmHg 72%
    09:00 +25°C° 0 mm 5 m/s 758 mmHg 66%
    10:00 +26°C° 0 mm 5 m/s 758 mmHg 61%
    11:00 +26°C° 0 mm 5 m/s 758 mmHg 58%
    12:00 +27°C° 0 mm 5 m/s 758 mmHg 55%
    13:00 +27°C° 0 mm 4 m/s 758 mmHg 52%
    14:00 +27°C° 0 mm 4 m/s 758 mmHg 53%
    15:00 +27°C° 0 mm 3 m/s 758 mmHg 54%
    16:00 +27°C° 0 mm 3 m/s 758 mmHg 55%
    17:00 +26°C° 0,1 mm 2 m/s 757 mmHg 61%
    18:00 +24°C° 0,1 mm 2 m/s 757 mmHg 66%
    19:00 +23°C° 0,1 mm 1 m/s 757 mmHg 71%
    20:00 +23°C° 0,1 mm 1 m/s 757 mmHg 73%
    21:00 +21°C° 0,1 mm 2 m/s 757 mmHg 75%
    22:00 +21°C° 0,1 mm 2 m/s 757 mmHg 78%
    23:00 +20°C° 0,1 mm 3 m/s 757 mmHg 81%
    Mostrar mais